Regional Weather Roundup
Issued by NWS

Home | Current Version | Previous Version | Text Only | Print | Product List | Glossary Off
Versions: 1 2 3 4 5 6 7 8 9 10 11 12 13 14 15 16 17 18 19 20 21 22 23 24 25 26 27 28 29 30 31 32 33 34 35 36 37 38 39 40 41 42 43 44 45 46 47 48 49 50

000
ASUS43 KBIS 310902
RWRND

NORTH DAKOTA REGIONAL WEATHER ROUNDUP
NATIONAL WEATHER SERVICE BISMARCK ND
400 AM CDT TUE MAY 31 2016

NOTE: "FAIR" INDICATES FEW OR NO CLOUDS BELOW 12,000 FEET WITH NO
SIGNIFICANT WEATHER AND/OR OBSTRUCTIONS TO VISIBILITY.


NDZ001>003-009>011-017-311000-
NORTHWEST NORTH DAKOTA

CITY           SKY/WX    TMP DP  RH WIND       PRES   REMARKS
WILLISTON      LGT RAIN  50  47  89 W10       29.81F
MINOT          LGT RAIN  57  54  89 NW7       29.72F
MINOT AFB      CLOUDY    55  55  99 N7        29.71F
$$

NDZ018>021-031>035-040>046-311000-
SOUTHWEST NORTH DAKOTA

CITY           SKY/WX    TMP DP  RH WIND       PRES   REMARKS
BISMARCK       CLOUDY    54  51  90 W14G22    29.78F
DICKINSON      CLEAR     42  39  89 W12       29.82F
GARRISON         N/A     52  51  97 W24G32    29.75F
HETTINGER ARPT MOCLDY    44  41  89 W15       29.88F
$$

NDZ004>008-012>016-024-026-027-054-311000-
NORTHEAST NORTH DAKOTA

CITY           SKY/WX    TMP DP  RH WIND       PRES   REMARKS
GRAND FORKS    MOCLDY    61  57  87 SE16      29.67F
GRND FRKS AFB  CLOUDY    58  57  97 SE7       29.68F
DEVILS LAKE    LGT RAIN  59  57  93 SE10      29.69F
$$

NDZ022-023-025-028>030-036>039-047>053-311000-
SOUTHEAST NORTH DAKOTA

CITY           SKY/WX    TMP DP  RH WIND       PRES   REMARKS
FARGO          CLOUDY    62  58  86 S8        29.71S
JAMESTOWN      CLOUDY    57  56  96 S6        29.71S
$$




USA.gov is the U.S. government's official web portal to all federal, state and local government web resources and services.